カタログに戻る

ORESAT0.5

運用中アマチュア無線SSO
NORAD 60525·PAYLOAD·🇺🇸 United States

打ち上げ Aug 16, 2024 から Vandenberg Space Force Base

Loading…

次のパス (今後24時間)

TLE

最新Source: Space-Track

元期: Sep 14, 2026, 04:55 UTC

1 60525U 24149BK  26257.20525119  .00016881  00000-0  32134-3 0  9995
2 60525  97.3682 344.7552 0003776 324.1299  35.9698 15.48280265116232

AllMySatでORESAT0.5をリアルタイム追跡

Download on the App Store